TimeCDT,TemperatureF,Dew PointF,Humidity,Sea Level PressureIn,VisibilityMPH,Wind Direction,Wind SpeedMPH,Gust SpeedMPH,PrecipitationIn,Events,Conditions,WindDirDegrees,DateUTC
12:15 AM,60.8,51.8,72,30.09,8.0,NNE,5.8,-,N/A,,Overcast,20,2013-04-17 05:15:00
12:35 AM,60.8,51.8,72,30.08,8.0,NNE,4.6,-,N/A,,Scattered Clouds,20,2013-04-17 05:35:00
12:55 AM,60.8,51.8,72,30.09,7.0,NNW,5.8,-,N/A,,Scattered Clouds,330,2013-04-17 05:55:00
1:15 AM,60.8,51.8,72,30.08,5.0,West,3.5,-,N/A,,Scattered Clouds,280,2013-04-17 06:15:00
1:35 AM,60.8,51.8,72,30.07,5.0,Calm,Calm,-,N/A,,Clear,0,2013-04-17 06:35:00
1:55 AM,59.0,50.0,72,30.06,5.0,WNW,4.6,-,N/A,,Clear,300,2013-04-17 06:55:00
2:15 AM,59.0,50.0,72,30.06,5.0,NNW,4.6,-,N/A,,Scattered Clouds,330,2013-04-17 07:15:00
2:35 AM,59.0,51.8,77,30.06,3.0,NNW,4.6,-,N/A,,Mostly Cloudy,330,2013-04-17 07:35:00
2:55 AM,59.0,50.0,72,30.06,0.5,Calm,Calm,-,N/A,,Overcast,0,2013-04-17 07:55:00
3:15 AM,59.0,50.0,72,30.07,0.5,North,3.5,-,N/A,,Overcast,350,2013-04-17 08:15:00
3:35 AM,59.0,50.0,72,30.08,0.5,NNE,4.6,-,N/A,,Overcast,20,2013-04-17 08:35:00
3:55 AM,59.0,50.0,72,30.09,0.5,NNE,4.6,-,N/A,,Overcast,30,2013-04-17 08:55:00
4:15 AM,59.0,50.0,72,30.09,0.8,NNE,3.5,-,N/A,,Overcast,20,2013-04-17 09:15:00
4:35 AM,57.2,50.0,77,30.09,3.0,NNE,3.5,-,N/A,,Overcast,20,2013-04-17 09:35:00
4:55 AM,57.2,50.0,77,30.09,4.0,Calm,Calm,-,N/A,,Scattered Clouds,0,2013-04-17 09:55:00
5:15 AM,57.2,48.2,72,30.09,4.0,Calm,Calm,-,N/A,,Partly Cloudy,0,2013-04-17 10:15:00
5:35 AM,57.2,48.2,72,30.09,2.5,Calm,Calm,-,N/A,,Partly Cloudy,0,2013-04-17 10:35:00
5:55 AM,57.2,48.2,72,30.09,3.0,Calm,Calm,-,N/A,,Clear,0,2013-04-17 10:55:00
6:15 AM,57.2,48.2,72,30.09,1.5,Calm,Calm,-,N/A,,Mostly Cloudy,0,2013-04-17 11:15:00
6:35 AM,57.2,48.2,72,30.09,2.0,Calm,Calm,-,N/A,,Overcast,0,2013-04-17 11:35:00
6:55 AM,57.2,50.0,77,30.09,2.5,Calm,Calm,-,N/A,,Mostly Cloudy,0,2013-04-17 11:55:00
7:15 AM,59.0,50.0,72,30.09,2.5,Calm,Calm,-,N/A,,Scattered Clouds,0,2013-04-17 12:15:00
7:35 AM,59.0,51.8,77,30.10,3.0,Calm,Calm,-,N/A,,Partly Cloudy,0,2013-04-17 12:35:00
7:55 AM,60.8,51.8,72,30.09,4.0,Calm,Calm,-,N/A,,Partly Cloudy,0,2013-04-17 12:55:00
8:15 AM,60.8,53.6,77,30.08,5.0,East,3.5,-,N/A,,Partly Cloudy,100,2013-04-17 13:15:00
8:35 AM,62.6,53.6,72,30.09,6.0,Calm,Calm,-,N/A,,Mostly Cloudy,0,2013-04-17 13:35:00
9:15 AM,66.2,57.2,73,30.08,10.0,Calm,Calm,-,N/A,,Mostly Cloudy,0,2013-04-17 14:15:00
9:35 AM,69.8,60.8,73,30.08,10.0,South,3.5,-,N/A,,Scattered Clouds,180,2013-04-17 14:35:00
9:55 AM,66.2,62.6,88,30.08,10.0,South,5.8,-,N/A,,Mostly Cloudy,170,2013-04-17 14:55:00
10:15 AM,73.4,62.6,69,30.08,10.0,SW,3.5,-,N/A,,Mostly Cloudy,220,2013-04-17 15:15:00
10:35 AM,77.0,62.6,61,30.07,10.0,SSW,5.8,-,N/A,,Mostly Cloudy,210,2013-04-17 15:35:00
10:55 AM,78.8,64.4,61,30.07,10.0,SSW,5.8,-,N/A,,Mostly Cloudy,200,2013-04-17 15:55:00
11:15 AM,78.8,64.4,61,30.06,10.0,SW,8.1,-,N/A,,Mostly Cloudy,220,2013-04-17 16:15:00
11:35 AM,80.6,64.4,58,30.06,10.0,WSW,8.1,-,N/A,,Partly Cloudy,240,2013-04-17 16:35:00
11:55 AM,80.6,64.4,58,30.05,10.0,SSW,10.4,-,N/A,,Scattered Clouds,210,2013-04-17 16:55:00
12:15 PM,80.6,64.4,58,30.03,10.0,SSW,8.1,-,N/A,,Scattered Clouds,210,2013-04-17 17:15:00
12:35 PM,82.4,64.4,54,30.02,10.0,WSW,8.1,-,N/A,,Mostly Cloudy,240,2013-04-17 17:35:00
12:55 PM,82.4,64.4,54,30.01,10.0,SSW,5.8,-,N/A,,Mostly Cloudy,200,2013-04-17 17:55:00
1:35 PM,82.4,64.4,54,30.01,10.0,SSW,12.7,-,N/A,,Mostly Cloudy,200,2013-04-17 18:35:00
1:55 PM,84.2,64.4,51,29.99,10.0,SSW,12.7,-,N/A,,Scattered Clouds,200,2013-04-17 18:55:00
2:15 PM,84.2,64.4,51,29.98,10.0,SSW,10.4,-,N/A,,Clear,200,2013-04-17 19:15:00
2:35 PM,84.2,64.4,51,29.99,10.0,South,13.8,-,N/A,,Clear,190,2013-04-17 19:35:00
2:55 PM,82.4,64.4,54,29.97,10.0,SW,11.5,-,N/A,,Clear,220,2013-04-17 19:55:00
3:35 PM,78.8,62.6,57,29.95,10.0,SSW,11.5,-,N/A,,Clear,210,2013-04-17 20:35:00
3:55 PM,78.8,62.6,57,29.93,10.0,SSW,9.2,-,N/A,,Clear,210,2013-04-17 20:55:00
4:15 PM,80.6,62.6,54,29.93,10.0,WSW,6.9,-,N/A,,Clear,240,2013-04-17 21:15:00
4:35 PM,80.6,62.6,54,29.92,10.0,SW,9.2,-,N/A,,Clear,230,2013-04-17 21:35:00
4:55 PM,82.4,64.4,54,29.92,10.0,SSW,9.2,-,N/A,,Clear,210,2013-04-17 21:55:00
5:15 PM,82.4,62.6,51,29.92,10.0,SSW,13.8,-,N/A,,Clear,210,2013-04-17 22:15:00
5:35 PM,82.4,62.6,51,29.91,10.0,SSW,10.4,-,N/A,,Clear,210,2013-04-17 22:35:00
5:55 PM,82.4,62.6,51,29.90,10.0,South,9.2,-,N/A,,Clear,190,2013-04-17 22:55:00
6:15 PM,82.4,62.6,51,29.89,10.0,South,10.4,-,N/A,,Clear,180,2013-04-17 23:15:00
6:35 PM,80.6,62.6,54,29.89,10.0,South,8.1,-,N/A,,Clear,180,2013-04-17 23:35:00
6:55 PM,78.8,60.8,54,29.89,10.0,South,6.9,-,N/A,,Clear,170,2013-04-17 23:55:00
7:15 PM,78.8,60.8,54,29.89,10.0,SSE,8.1,-,N/A,,Mostly Cloudy,160,2013-04-18 00:15:00
7:35 PM,78.8,60.8,54,29.89,10.0,South,6.9,-,N/A,,Overcast,170,2013-04-18 00:35:00
7:55 PM,75.2,59.0,57,29.89,10.0,South,8.1,-,N/A,,Partly Cloudy,170,2013-04-18 00:55:00
8:15 PM,75.2,57.2,53,29.88,8.0,SE,8.1,-,N/A,,Partly Cloudy,130,2013-04-18 01:15:00
8:35 PM,75.2,59.0,57,29.88,10.0,SE,8.1,-,N/A,,Partly Cloudy,130,2013-04-18 01:35:00
8:55 PM,75.2,59.0,57,29.89,10.0,SSE,11.5,-,N/A,,Partly Cloudy,150,2013-04-18 01:55:00
9:15 PM,73.4,57.2,57,29.88,10.0,SSE,12.7,19.6,N/A,,Scattered Clouds,160,2013-04-18 02:15:00
9:55 PM,73.4,57.2,57,29.87,10.0,SSE,12.7,-,N/A,,Clear,160,2013-04-18 02:55:00
10:15 PM,71.6,55.4,57,29.86,10.0,SSE,12.7,-,N/A,,Clear,160,2013-04-18 03:15:00
10:35 PM,71.6,55.4,57,29.85,10.0,SSE,12.7,-,N/A,,Clear,160,2013-04-18 03:35:00
10:55 PM,71.6,55.4,57,29.84,10.0,SSE,12.7,-,N/A,,Clear,160,2013-04-18 03:55:00
11:15 PM,71.6,55.4,57,29.84,10.0,SSE,13.8,-,N/A,,Clear,160,2013-04-18 04:15:00
11:35 PM,71.6,55.4,57,29.83,10.0,SSE,12.7,-,N/A,,Clear,160,2013-04-18 04:35:00
11:55 PM,71.6,57.2,60,29.83,10.0,South,13.8,-,N/A,,Clear,170,2013-04-18 04:55:00